GLENN Weather Reports


time (UTC)temp
C
wind
direction
speed
KPH
gust
KPH
rain 1hr
cm
rain 24hr
cm
rain mn
cm
humidity
%
barometer
mb
20260502220020 21 326 6.4 11.3 0.00 0.00 0.00 24 1016.8
20260502214537 21 5 6.4 12.9 0.00 0.00 0.00 22 1017.1
20260502213028 20 325 4.8 16.1 0.00 0.00 0.00 22 1017.2
20260502211535 20 329 8.0 17.7 0.00 0.00 0.00 24 1017.4
20260502210025 20 5 3.2 12.9 0.00 0.00 0.00 21 1017.4
20260502204522 20 333 3.2 11.3 0.00 0.00 0.00 30 1017.8
20260502203013 18 352 6.4 12.9 0.00 0.00 0.00 26 1018.1
20260502201512 18 348 3.2 9.7 0.00 0.00 0.00 26 1018.3
20260502200018 18 342 6.4 12.9 0.00 0.00 0.00 24 1018.3
20260502194522 18 342 1.6 9.7 0.00 0.00 0.00 27 1018.3
20260502193005 18 319 4.8 14.5 0.00 0.00 0.00 27 1018.5
20260502191516 18 346 3.2 12.9 0.00 0.00 0.00 28 1018.6
20260502190013 18 360 4.8 11.3 0.00 0.00 0.00 27 1018.8
20260502184520 17 5 6.4 14.5 0.00 0.00 0.00 30 1018.9
20260502183024 17 334 4.8 12.9 0.00 0.00 0.00 32 1019.1
20260502181506 17 307 6.4 16.1 0.00 0.00 0.00 29 1019.3
20260502163021 14 342 3.2 8.0 0.00 0.00 0.00 39 1020.0
20260502161522 13 352 3.2 6.4 0.00 0.00 0.00 37 1020.0
20260502151524 11 5 1.6 4.8 0.00 0.00 0.00 42 1020.4
20260502123028 7 78 0.0 3.2 0.00 0.00 0.00 39 1019.9
20260502121524 7 113 4.8 6.4 0.00 0.00 0.00 40 1019.8
20260502114505 7 108 3.2 6.4 0.00 0.00 0.00 39 1019.7
20260502113010 7 101 4.8 6.4 0.00 0.00 0.00 39 1019.8
20260502111510 7 141 1.6 3.2 0.00 0.00 0.00 38 1019.8
20260502110010 7 130 0.0 3.2 0.00 0.00 0.00 38 1019.6
20260502104512 8 100 3.2 4.8 0.00 0.00 0.00 36 1019.6
20260502103006 8 101 3.2 4.8 0.00 0.00 0.00 35 1019.5
20260502101514 8 76 3.2 4.8 0.00 0.00 0.00 34 1019.4
20260502091510 7 104 0.0 4.8 0.00 0.00 0.00 36 1019.4
20260502071516 10 190 1.6 3.2 0.00 0.00 0.00 28 1019.1
20260502070022 10 124 3.2 4.8 0.00 0.00 0.00 28 1019.1
20260502064516 10 112 3.2 4.8 0.00 0.00 0.00 27 1019.1
20260502063027 11 117 4.8 6.4 0.00 0.00 0.00 28 1019.0
20260502061519 10 170 0.0 0.0 0.00 0.00 0.00 29 1018.9
20260502060022 10 257 0.0 3.2 0.00 0.00 0.00 30 1019.1
20260502054525 10 200 0.0 3.2 0.00 0.00 0.00 30 1019.0
20260502053018 11 99 4.8 6.4 0.00 0.00 0.00 26 1018.9
20260502051520 12 94 4.8 9.7 0.00 0.00 0.00 25 1019.0
20260502050019 11 104 6.4 11.3 0.00 0.00 0.00 27 1019.0
20260502044522 11 109 8.0 12.9 0.00 0.00 0.00 27 1019.0
20260502043023 11 121 9.7 11.3 0.00 0.00 0.00 27 1019.0
20260502041521 11 109 9.7 11.3 0.00 0.00 0.00 26 1019.1
20260502040023 11 105 9.7 12.9 0.00 0.00 0.00 26 1019.0
20260502034525 11 105 9.7 12.9 0.00 0.00 0.00 27 1019.0
20260502033024 11 111 8.0 11.3 0.00 0.00 0.00 26 1018.9
20260502031520 11 114 8.0 11.3 0.00 0.00 0.00 24 1018.8
20260502030018 12 106 9.7 12.9 0.00 0.00 0.00 24 1018.6
20260502024504 12 107 11.3 14.5 0.00 0.00 0.00 24 1018.5
20260502023010 13 105 9.7 11.3 0.00 0.00 0.00 23 1018.5
20260502021517 16 101 4.8 4.8 0.00 0.00 0.00 21 1018.6
20260502020016 18 299 0.0 3.2 0.00 0.00 0.00 15 1018.6
20260502014526 18 299 0.0 1.6 0.00 0.00 0.00 13 1018.6
20260502013009 20 99 0.0 3.2 0.00 0.00 0.00 11 1018.7
20260502011514 19 99 0.0 3.2 0.00 0.00 0.00 19 1018.8
20260502010017 18 25 0.0 3.2 0.00 0.00 0.00 18 1018.9
20260502004539 18 9 1.6 4.8 0.00 0.00 0.00 17 1019.1
20260502003023 18 46 0.0 3.2 0.00 0.00 0.00 20 1019.1
20260502001511 18 207 0.0 6.4 0.00 0.00 0.00 14 1019.1
20260502000014 18 335 1.6 9.7 0.00 0.00 0.00 14 1019.2
20260501234530 18 336 3.2 9.7 0.00 0.00 0.00 17 1019.2
20260501233025 18 213 3.2 9.7 0.00 0.00 0.00 17 1019.3
20260501231536 18 80 1.6 6.4 0.00 0.00 0.00 17 1019.4
20260501230013 19 273 3.2 9.7 0.00 0.00 0.00 20 1019.4
20260501224517 18 218 1.6 6.4 0.00 0.00 0.00 24 1019.6
20260501223024 17 209 3.2 6.4 0.00 0.00 0.00 19 1019.6
20260501221524 17 284 4.8 14.5 0.00 0.00 0.00 23 1019.9